world map with LIPY marked

LIPY - Airport

This information may not be accurate or current and is not valid for navigation or flight planning. No warranty of fitness for any purpose is made or implied.

flag of Marcheflag of Italy

Donate via PayPal

Additional information is available on the NEW Great Circle Mapper

Location
City:  Ancona, Marche, Italy
Name:Falconara
ICAO / IATA:LIPY / AOI

Details
Type:Airport (Aerodrome, Airfield)
Use:Public/Civil
Latitude:43°36'59"N (43.616342)
Longitude:13°21'44"E (13.362319)
Datum:WGS 1984
Elevation:49 ft (15 m)
Runways:1
Longest:9718 × 148 ft (2962 × 45 m)

Time
Timezone:UTC+1 (DST+4)
Local Time:

Weather
METAR:LIPY  041350Z 35009KT 9999 FEW040 11/07 Q1022
TAF:LIPY  041100Z 0412/0512 33012KT 8000 FEW015 BKN040

Related Locations
Nearby:
Farthest:CHT: 11949 mi / 19230 km
Waitangi [Tuuta], CIT, NZ

Find:

   beyond  
but within

Other Information
Maps:
Sources:

  


 


Great Circle Mapper   Great Circle Mapper
Great Circle Mapper FAQ   Great Circle Mapper FAQ
  Karl's Home Page
KLSē   KLSē Home
   GC on Facebook
Airlines of the World   Airlines of the World
Donate via PayPal


Copyright © 2004-2019, Karl L. Swartz. All rights reserved.
All trademarks mentioned herein belong to their respective owners.

Please see credits for attribution and copyright information.

Karl Swartz <karl@kls2.com>
  Powered by FreeBSD
Valid HTML 4.01!
Labeled with ICRA
hCard Microformat
Geo Microformat